Regional Weather Roundup
Issued by NWS Green Bay, WI

Home | Current Version | Previous Version | Text Only | Print | Product List | Glossary On
Versions: 1 2 3 4 5 6 7 8 9 10 11 12 13 14 15 16 17 18 19 20 21 22 23 24 25 26 27 28 29 30 31 32 33 34 35 36 37 38 39 40 41 42 43 44 45 46 47 48 49 50
000
ASUS43 KGRB 280811
RWRGRB

NORTH-CENTRAL AND NORTHEAST WISCONSIN REGIONAL WEATHER ROUNDUP
NATIONAL WEATHER SERVICE GREEN BAY WI
300 AM CDT TUE JUL 28 2015

WIZ005-009-010>012-018-019-280900-
NORTH CENTRAL WISCONSIN

CITY           SKY/WX    TMP DP  RH WIND       PRES   REMARKS
IRONWOOD       CLEAR     72  63  73 S8        29.94F
MANITOWISH WTR CLEAR     67  64  89 S5        29.99F
ARBOR VITAE    CLEAR     72  65  77 S6        30.00F
EAGLE RIVER    CLEAR     64  62  94 S5        30.01F
LAND O LAKES   CLEAR     57  57  99 S3        30.02F
RHINELANDER    CLEAR     64  60  87 SE5       30.02F
PHILLIPS       CLEAR     68  63  84 SE3       29.98F
ANTIGO         CLEAR     63  61  94 S6        30.03F
TOMAHAWK       CLEAR     64  61  89 SE3       30.01F
MERRILL        NOT AVBL
$$

WIZ013-073-280900-
NORTHEAST WISCONSIN

CITY           SKY/WX    TMP DP  RH WIND       PRES   REMARKS
IRON MOUNTAIN  PTCLDY    62  60  93 CALM      30.01F
MARINETTE      CLEAR     64  63  94 CALM      30.00F VSB 1
OCONTO         CLEAR     58  58 100 CALM      30.01S
$$

WIZ017-030-035>037-045-280900-
CENTRAL WISCONSIN

CITY           SKY/WX    TMP DP  RH WIND       PRES   REMARKS
MEDFORD        CLEAR     66  62  86 SE5       30.00S
WAUSAU         CLEAR     65  62  90 E7        29.99F
MOSINEE        CLEAR     64  63  94 E7        30.01F
MARSHFIELD     CLEAR     69  60  73 S6        29.99F
WISC RAPIDS    CLEAR     69  61  75 SE6       30.00F
STEVENS POINT  CLEAR     61  59  93 CALM      30.01F
WAUPACA        CLEAR     64  63  98 CALM      30.01F FOG
SHAWANO        CLEAR     68  63  84 CALM      30.01F
CLINTONVILLE   CLEAR     61  59  94 CALM      30.01F FOG
$$

WIZ038-039-048-051-280900-
FOX VALLEY

CITY           SKY/WX    TMP DP  RH WIND       PRES   REMARKS
NWS GREEN BAY  CLEAR     61  59  93 CALM      30.02S FOG
APPLETON       CLEAR     68  61  77 SE6       30.02F
OSHKOSH        CLEAR     60  58  92 S5        30.01F
FOND DU LAC    CLEAR     64  62  93 S3        30.02F
$$

WIZ022-050-052-280900-
EAST CENTRAL WISCONSIN

CITY           SKY/WX    TMP DP  RH WIND       PRES   REMARKS
STURGEON BAY   CLEAR     66  61  82 S7        30.04S
MANITOWOC      CLOUDY    62  61  96 MISG      30.03S FOG
SHEBOYGAN      CLEAR     58  56  93 CALM      30.03F FOG
$$

LMZ563-521-522-541>543-280900-
LAKESHORE

STATION/POSITION TIME  TEMP    WIND        PRES    VSBY  WAVE
                       AIR SEA DIR/SP/G                  HT/PER
                 (UTC) (F)     (DEG/KT/KT) (MB)    (MI)  (FT/S)
SHEBOYGAN LKSHOR 0800   70     290/  4/  5 1016.9F
KEWAUNEE LKSHORE 0700   65     300/  2/  3 1016.4F
ALGOMA MARINA    0712             CALM       N/A
NORTHPORT PIER   0800   68     180/  3/  6 1016.3F
N MID LAKE BUOY  0750   71 69  200/  6/  8 1016.0F         0
SISTER BAY LKSHO 0714   69     160/  9/ 11   N/A
CHAMBERS ISLAND  0700   69     180/  2/  4 1016.6S
MENOMINEE LKSHOR 0700   74     160/  8/  9 1017.1F
$$



USA.gov is the U.S. government's official web portal to all federal, state and local government web resources and services.